When you browse on this site, cookies collect data to enhance your experience and personalize the content and advertising you see.
Visit our Privacy Policy to learn more. By continuing to use the site, you agree to this use of cookies and data.
  • En España
  • Lista de países
  • Para 7 días
  • Temperatura del agua
  • El tiempo en el mapa
  • Informadores
  • user-avatar
    Iniciar sesión

    Tiempo cada hora Bezha

    Hoy, 4 Junio, Jueves

    Tiempo Temperatura Precipitaciones Viento Presión Humedad
    00:00 +17°C° 0 mm 2 mps 738 mmHg 93%
    01:00 +16°C° 0 mm 2 mps 737 mmHg 95%
    02:00 +16°C° 0 mm 1 mps 737 mmHg 96%
    03:00 +16°C° 0.3 mm 1 mps 737 mmHg 95%
    04:00 +18°C° 0.3 mm 1 mps 737 mmHg 93%
    05:00 +17°C° 0 mm 2 mps 737 mmHg 91%
    06:00 +19°C° 0.1 mm 2 mps 737 mmHg 83%
    07:00 +20°C° 0.1 mm 2 mps 737 mmHg 75%
    08:00 +23°C° 0.1 mm 2 mps 738 mmHg 67%
    09:00 +24°C° 0.8 mm 3 mps 738 mmHg 63%
    10:00 +25°C° 0.8 mm 3 mps 738 mmHg 58%
    11:00 +26°C° 0 mm 3 mps 738 mmHg 56%
    12:00 +26°C° 0.6 mm 4 mps 738 mmHg 54%
    13:00 +27°C° 0.6 mm 4 mps 738 mmHg 52%
    14:00 +27°C° 0.6 mm 4 mps 737 mmHg 51%
    15:00 +27°C° 0.3 mm 5 mps 737 mmHg 52%
    16:00 +26°C° 0.3 mm 5 mps 738 mmHg 52%
    17:00 +26°C° 0.3 mm 6 mps 738 mmHg 53%
    18:00 +23°C° 0 mm 5 mps 738 mmHg 55%
    19:00 +21°C° 0 mm 5 mps 739 mmHg 57%
    20:00 +20°C° 0 mm 4 mps 739 mmHg 59%
    21:00 +19°C° 0 mm 4 mps 739 mmHg 64%
    22:00 +17°C° 0 mm 3 mps 739 mmHg 68%
    23:00 +16°C° 0 mm 3 mps 740 mmHg 73%

    Mañana, 5 Junio, Viernes

    Tiempo Temperatura Precipitaciones Viento Presión Humedad
    00:00 +15°C° 0 mm 2 mps 739 mmHg 77%
    01:00 +14°C° 0 mm 2 mps 739 mmHg 82%
    02:00 +14°C° 0 mm 2 mps 739 mmHg 86%
    03:00 +13°C° 0 mm 2 mps 739 mmHg 87%
    04:00 +13°C° 0 mm 2 mps 739 mmHg 88%
    05:00 +13°C° 0 mm 2 mps 739 mmHg 89%
    06:00 +15°C° 0 mm 2 mps 740 mmHg 78%
    07:00 +18°C° 0 mm 2 mps 740 mmHg 68%
    08:00 +20°C° 0 mm 3 mps 741 mmHg 57%
    09:00 +22°C° 0 mm 3 mps 741 mmHg 48%
    10:00 +25°C° 0 mm 3 mps 741 mmHg 40%
    11:00 +26°C° 0 mm 3 mps 741 mmHg 31%
    12:00 +27°C° 0 mm 4 mps 740 mmHg 31%
    13:00 +28°C° 0 mm 4 mps 740 mmHg 30%
    14:00 +28°C° 0 mm 5 mps 740 mmHg 30%
    15:00 +27°C° 0 mm 5 mps 740 mmHg 35%
    16:00 +26°C° 0 mm 5 mps 739 mmHg 41%
    17:00 +23°C° 0 mm 5 mps 739 mmHg 47%
    18:00 +21°C° 0 mm 5 mps 740 mmHg 54%
    19:00 +19°C° 0 mm 4 mps 740 mmHg 62%
    20:00 +17°C° 0 mm 4 mps 740 mmHg 70%
    21:00 +17°C° 0 mm 4 mps 740 mmHg 75%
    22:00 +16°C° 0 mm 3 mps 740 mmHg 79%
    23:00 +14°C° 0 mm 3 mps 740 mmHg 83%

    Pasado mañana, 6 Junio, Sábado

    Tiempo Temperatura Precipitaciones Viento Presión Humedad
    00:00 +14°C° 0 mm 2 mps 740 mmHg 85%
    01:00 +14°C° 0 mm 2 mps 740 mmHg 88%
    02:00 +13°C° 0 mm 2 mps 739 mmHg 91%
    03:00 +13°C° 0 mm 2 mps 740 mmHg 91%
    04:00 +13°C° 0 mm 1 mps 740 mmHg 91%
    05:00 +13°C° 0 mm 1 mps 740 mmHg 92%
    06:00 +15°C° 0 mm 2 mps 740 mmHg 79%
    07:00 +17°C° 0 mm 2 mps 740 mmHg 67%
    08:00 +19°C° 0 mm 2 mps 740 mmHg 54%
    09:00 +21°C° 0 mm 2 mps 740 mmHg 48%
    10:00 +24°C° 0 mm 2 mps 740 mmHg 41%
    11:00 +26°C° 0 mm 2 mps 740 mmHg 34%
    12:00 +27°C° 0 mm 3 mps 739 mmHg 32%
    13:00 +28°C° 0 mm 3 mps 739 mmHg 30%
    14:00 +29°C° 0 mm 4 mps 738 mmHg 28%
    15:00 +27°C° 0 mm 5 mps 738 mmHg 33%
    16:00 +26°C° 0 mm 6 mps 738 mmHg 38%
    17:00 +24°C° 0 mm 6 mps 738 mmHg 43%
    18:00 +22°C° 0 mm 6 mps 738 mmHg 50%
    19:00 +20°C° 0 mm 5 mps 738 mmHg 58%
    20:00 +19°C° 0 mm 5 mps 738 mmHg 65%
    21:00 +18°C° 0 mm 4 mps 738 mmHg 69%
    22:00 +17°C° 0 mm 3 mps 738 mmHg 73%
    23:00 +16°C° 0 mm 2 mps 738 mmHg 76%

    7 Junio, Domingo

    Tiempo Temperatura Precipitaciones Viento Presión Humedad
    00:00 +16°C° 0 mm 2 mps 738 mmHg 80%
    01:00 +15°C° 0 mm 2 mps 738 mmHg 83%
    02:00 +15°C° 0 mm 2 mps 738 mmHg 86%
    03:00 +15°C° 0 mm 2 mps 738 mmHg 87%
    04:00 +15°C° 0 mm 2 mps 738 mmHg 88%
    05:00 +15°C° 0 mm 2 mps 739 mmHg 89%
    06:00 +17°C° 0 mm 3 mps 739 mmHg 78%
    07:00 +19°C° 0 mm 3 mps 739 mmHg 68%
    08:00 +21°C° 0 mm 4 mps 740 mmHg 57%
    09:00 +22°C° 0 mm 4 mps 740 mmHg 53%
    10:00 +23°C° 0 mm 5 mps 740 mmHg 49%
    11:00 +25°C° 0 mm 5 mps 740 mmHg 44%
    12:00 +25°C° 0 mm 5 mps 740 mmHg 45%
    13:00 +24°C° 0 mm 6 mps 740 mmHg 45%
    14:00 +24°C° 0 mm 6 mps 740 mmHg 45%
    15:00 +24°C° 0 mm 6 mps 740 mmHg 47%
    16:00 +23°C° 0 mm 6 mps 740 mmHg 49%
    17:00 +22°C° 0 mm 6 mps 740 mmHg 51%
    18:00 +21°C° 0 mm 6 mps 740 mmHg 55%
    19:00 +20°C° 0 mm 5 mps 740 mmHg 59%
    20:00 +18°C° 0 mm 4 mps 741 mmHg 62%
    21:00 +17°C° 0 mm 4 mps 741 mmHg 65%
    22:00 +15°C° 0 mm 4 mps 741 mmHg 68%
    23:00 +13°C° 0 mm 4 mps 741 mmHg 70%

    8 Junio, Lunes

    Tiempo Temperatura Precipitaciones Viento Presión Humedad
    00:00 +13°C° 0 mm 4 mps 740 mmHg 74%
    01:00 +12°C° 0 mm 4 mps 740 mmHg 78%
    02:00 +11°C° 0 mm 3 mps 740 mmHg 82%
    03:00 +11°C° 0 mm 3 mps 740 mmHg 83%
    04:00 +11°C° 0 mm 3 mps 740 mmHg 85%
    05:00 +11°C° 0 mm 3 mps 740 mmHg 86%
    06:00 +13°C° 0 mm 4 mps 740 mmHg 75%
    07:00 +15°C° 0 mm 4 mps 741 mmHg 64%
    08:00 +19°C° 0 mm 4 mps 741 mmHg 52%
    09:00 +21°C° 0 mm 4 mps 741 mmHg 45%
    10:00 +22°C° 0 mm 4 mps 741 mmHg 37%
    11:00 +25°C° 0 mm 4 mps 741 mmHg 30%
    12:00 +26°C° 0 mm 5 mps 741 mmHg 29%
    13:00 +27°C° 0 mm 5 mps 740 mmHg 29%
    14:00 +27°C° 0 mm 5 mps 740 mmHg 28%
    15:00 +26°C° 0 mm 6 mps 740 mmHg 31%
    16:00 +24°C° 0 mm 6 mps 740 mmHg 34%
    17:00 +24°C° 0 mm 6 mps 740 mmHg 36%
    18:00 +22°C° 0 mm 6 mps 740 mmHg 44%
    19:00 +20°C° 0 mm 5 mps 740 mmHg 52%
    20:00 +16°C° 0 mm 5 mps 740 mmHg 60%
    21:00 +15°C° 0 mm 4 mps 740 mmHg 66%
    22:00 +14°C° 0 mm 4 mps 740 mmHg 72%
    23:00 +13°C° 0 mm 3 mps 740 mmHg 78%

    9 Junio, Martes

    Tiempo Temperatura Precipitaciones Viento Presión Humedad
    00:00 +13°C° 0 mm 3 mps 740 mmHg 82%
    01:00 +13°C° 0 mm 2 mps 740 mmHg 87%
    02:00 +13°C° 0 mm 2 mps 739 mmHg 91%
    03:00 +13°C° 0 mm 2 mps 739 mmHg 91%
    04:00 +13°C° 0 mm 2 mps 739 mmHg 91%
    05:00 +13°C° 0 mm 1 mps 739 mmHg 92%
    06:00 +16°C° 0 mm 1 mps 740 mmHg 80%
    07:00 +19°C° 0 mm 1 mps 740 mmHg 68%
    08:00 +22°C° 0 mm 1 mps 740 mmHg 56%
    09:00 +24°C° 0 mm 1 mps 740 mmHg 47%
    10:00 +26°C° 0 mm 1 mps 740 mmHg 38%
    11:00 +28°C° 0 mm 1 mps 740 mmHg 29%
    12:00 +28°C° 0 mm 1 mps 740 mmHg 26%
    13:00 +29°C° 0 mm 2 mps 740 mmHg 24%
    14:00 +30°C° 0 mm 2 mps 739 mmHg 21%
    15:00 +29°C° 0 mm 2 mps 739 mmHg 23%
    16:00 +29°C° 0 mm 3 mps 739 mmHg 25%
    17:00 +28°C° 0 mm 4 mps 739 mmHg 27%
    18:00 +26°C° 0 mm 3 mps 739 mmHg 36%
    19:00 +24°C° 0 mm 3 mps 739 mmHg 45%
    20:00 +21°C° 0 mm 3 mps 740 mmHg 54%
    21:00 +20°C° 0 mm 2 mps 740 mmHg 56%
    22:00 +19°C° 0 mm 2 mps 740 mmHg 59%
    23:00 +19°C° 0 mm 1 mps 740 mmHg 62%
    Mostrar más